Preview of NWS' New Version of Forecast
This preview is not operational and should not be used for support decisions.

Regional Weather Roundup (RWR)

Issued by National Weather Service (NWS)

                            
000
ASCA42 TJSJ 211710
RWRPR 
PUERTO RICO/U.S. VIRGIN ISLANDS HOURLY WEATHER ROUNDUP
NATIONAL WEATHER SERVICE SAN JUAN PR
100 PM AST WED AUG 21 2019

PRZ001>002-007>008-010-211800-
PUERTO RICO
  
CITY           SKY/WX    TMP DP  RH WIND       PRES   REMARKS
SAN JUAN LMM   MOSUNNY   88  73  62 E21       30.02F HX  96           
AGUADILLA      SUNNY     88  75  66 E16G22    30.03F HX  97           
CEIBA          MOSUNNY   88  75  66 E12       30.04F HX  97           
$$

VIZ001>002-211800-
U.S. VIRGIN ISLANDS
  
CITY           SKY/WX    TMP DP  RH WIND       PRES   REMARKS
CHARLOTTE AMA  MOSUNNY   90  73  58 SE17      30.02F HX  98           
$$

HOURLY WEATHER ROUNDUP FOR THE NEWS MEDIA
  
CITY           SKY/WX    TMP DP  RH WIND       PRES   REMARKS
ORLANDO        FAIR      89  73  59 E9        30.10F HX  97           
NEW YORK       PTSUNNY   87  74  64 SW16      29.93F HX  95           
NEWARK         PTSUNNY   86  72  62 SW8       29.91F HX  92           
CHICAGO        PTSUNNY   82  70  66 W12       29.97R                  
HARTFORD       CLOUDY    79  72  79 S9        29.95F                  
BOSTON         CLOUDY    87  69  54 S15       29.92F HX  91           
DALLAS         SUNNY     93  68  43 VRB6      30.03F HX  97           
PHILADELPHIA   PTSUNNY   87  70  56 SW9       29.92F HX  92           
LOS ANGELES    MOSUNNY   76  64  66 W7        29.87S                  
WASHINGTON DC  PTSUNNY   88  72  58 SE8       29.93F HX  94